sat.trackr.live / text

‹ back to catalog

STARLINK-32527

NORAD 62319 · 2024-239U

PAYLOAD ACTIVE UNKNOWN

§ Identity

Operator
Country
US
Launch date
2024-12-13
Launch site
AFWTR
Launch vehicle
Mass (kg)
RCS (m²)

Purposes: comms

External: N2YO · Heavens-Above · Gunter

§ Orbital elements

Epoch: 2026-09-21T12:05:17.551104Z

Period
94.01 min
Inclination
53.1621°
Eccentricity
0.0002662
Mean motion
15.31698620 rev/d
Perigee alt
468.9 km
Apogee alt
472.6 km
Semi-major
6,848.9 km
B*
4.1876e-4
RAAN
350.1959°
Arg perigee
88.9856°
Mean anomaly
271.1451°
Rev number
9,956

§ Raw data

STARLINK-325271 62319U 24239U   26264.50367536  .00012651  00000+0  41876-3 0  99992 62319  53.1621 350.1959 0002662  88.9856 271.1451 15.31698620 99564

JSON: /api/v1/satellites/62319 · /tle

For live sub-satellite position, see the globe view (requires WebGL).

§ Visibility from observer

Set your observer location to see the next 7 days of passes ≥ 10°. The values pass through the URL so the page stays shareable.

No JS? Fill the form by hand. The geolocation button needs JavaScript.